Weather History for Rochester, NH

Change the Weather History Date:

Tuesday, January 24, 2012

  Actual Average (KSFM) Record (KSFM)
Temperature  
Mean Temperature 45 °F -  
Max Temperature 51 °F 27 °F 57 °F (1999)
Min Temperature 37 °F 7 °F -14 °F (2005)
Degree Days  
Heating Degree Days 20    
Moisture  
Dew Point 38 °F    
Average Humidity 85    
Maximum Humidity 100    
Minimum Humidity 56    
Precipitation  
Precipitation 0.02 in - - ()
Sea Level Pressure  
Sea Level Pressure 29.87 in    
Wind  
Wind Speed 3 mph (SW)    
Max Wind Speed 12 mph    
Max Gust Speed 20 mph    
Visibility 4 miles    
Events Fog , Rain    
Averages and records for this station are not official NWS values.
T = Trace of Precipitation, MM = Missing Value Source: NWS Daily Summary

Daily Weather History Graph

Daily Weather History Graph

Search for Another Location

Airport:

Trip Planner

Search our weather history database for the weather conditions in past years. The results will help you decide how hot, cold, wet, or windy it might be!

Date:

Astronomy

Jan. 24, 2012 Rise Set
Actual Time 7:07 AM EST 4:44 PM EST
Civil Twilight 6:36 AM EST 5:15 PM EST
Nautical Twilight 6:01 AM EST 5:50 PM EST
Astronomical Twilight 5:28 AM EST 6:23 PM EST
Moon 7:31 AM EST (1/24) 6:37 PM EST (1/24)
Length of Visible Light 10h 38m
Length of Day
9h 36m
New Moon, 2% of the Moon is Illuminated
Jan 24
New Moon
Jan 30
First Quarter
Feb 7
Full
Feb 14
Last Quarter
Feb 21
New

Hourly Weather History & Observations

Time (EST) Temp. Windchill Dew Point Humidity Pressure Visibility Wind Dir Wind Speed Gust Speed Precip Events Conditions
12:14 AM 44.6 °F 41.4 °F 42.8 °F 93% 29.84 in 0.5 mi SSE 5.8 mph - 0.02 in Fog , Rain Light Rain
12:21 AM 44.6 °F 42.2 °F 42.8 °F 93% 29.83 in 0.2 mi SSE 4.6 mph - 0.02 in Fog , Rain Light Rain
12:51 AM 44.1 °F 41.5 °F 44.1 °F 100% 29.83 in 0.2 mi South 4.6 mph - 0.02 in Fog Fog
1:51 AM 43.0 °F - 42.1 °F 97% 29.83 in 0.2 mi Calm Calm - 0.00 in Fog Fog
2:51 AM 43.0 °F - 43.0 °F 100% 29.82 in 0.2 mi Calm Calm - N/A Fog Fog
3:41 AM 42.8 °F - 42.8 °F 100% 29.82 in 0.5 mi Calm Calm - N/A Fog Fog
4:00 AM 42.8 °F - 42.8 °F 100% 29.82 in 0.2 mi Calm Calm - N/A Fog Fog
4:12 AM 42.8 °F - 42.8 °F 100% 29.82 in 0.5 mi Calm Calm - N/A Fog Fog
4:51 AM 42.1 °F - 41.0 °F 96% 29.83 in 0.8 mi Calm Calm - N/A   Overcast
4:58 AM 42.8 °F - 41.0 °F 93% 29.83 in 1.0 mi Calm Calm - N/A   Overcast
5:12 AM 42.8 °F - 42.8 °F 100% 29.83 in 3.0 mi Calm Calm - N/A   Overcast
5:21 AM 42.8 °F - 41.0 °F 93% 29.82 in 1.8 mi Calm Calm - N/A   Mostly Cloudy
5:28 AM 41.0 °F - 39.2 °F 93% 29.83 in 0.5 mi Calm Calm - N/A Fog Fog
5:41 AM 41.0 °F - 39.2 °F 93% 29.83 in 1.0 mi Calm Calm - N/A   Mostly Cloudy
5:51 AM 39.9 °F - 39.9 °F 100% 29.83 in 0.5 mi Calm Calm - N/A Fog Fog
5:54 AM 39.2 °F - 39.2 °F 100% 29.83 in 0.2 mi Calm Calm - N/A Fog Fog
6:19 AM 41.0 °F 39.0 °F 39.2 °F 93% 29.83 in 0.2 mi South 3.5 mph - N/A Fog Fog
6:51 AM 39.9 °F 37.8 °F 39.9 °F 100% 29.84 in 0.2 mi South 3.5 mph - N/A Fog Fog
7:16 AM 39.2 °F - 39.2 °F 100% 29.84 in 0.2 mi Calm Calm - N/A Fog Fog
7:51 AM 39.9 °F - 39.0 °F 97% 29.85 in 0.2 mi Calm Calm - N/A Fog Fog
8:51 AM 42.1 °F - 41.0 °F 96% 29.86 in 0.8 mi Calm Calm - N/A   Mist
8:55 AM 42.8 °F - 42.8 °F 100% 29.87 in 2.0 mi Calm Calm - N/A   Mostly Cloudy
9:00 AM 42.8 °F - 42.8 °F 100% 29.87 in 6.0 mi Calm Calm - N/A   Scattered Clouds
9:51 AM 45.0 °F - 44.1 °F 97% 29.88 in 10.0 mi Calm Calm - N/A   Clear
10:51 AM 50.0 °F - 45.0 °F 83% 29.87 in 10.0 mi Calm Calm - N/A   Clear
11:51 AM 51.1 °F - 39.9 °F 66% 29.86 in 10.0 mi West 8.1 mph - N/A   Clear
12:51 PM 51.1 °F - 37.9 °F 61% 29.86 in 10.0 mi West 9.2 mph 17.3 mph N/A   Scattered Clouds
1:51 PM 51.1 °F - 36.0 °F 56% 29.86 in 10.0 mi Variable 5.8 mph - N/A   Mostly Cloudy
2:51 PM 50.0 °F - 35.1 °F 57% 29.88 in 10.0 mi Variable 6.9 mph - N/A   Overcast
3:51 PM 46.0 °F 40.6 °F 34.0 °F 63% 29.89 in 10.0 mi WNW 11.5 mph 19.6 mph N/A   Overcast
4:51 PM 45.0 °F 41.8 °F 30.9 °F 58% 29.93 in 10.0 mi Variable 5.8 mph - N/A   Overcast
5:51 PM 43.0 °F 36.8 °F 30.9 °F 62% 29.95 in 10.0 mi NW 11.5 mph - N/A   Overcast
6:51 PM 42.1 °F 40.2 °F 30.9 °F 65% 29.95 in 10.0 mi Variable 3.5 mph - N/A   Overcast
7:51 PM 41.0 °F - 30.0 °F 65% 29.96 in 10.0 mi Calm Calm - N/A   Overcast
8:51 PM 42.1 °F 38.4 °F 30.0 °F 62% 29.96 in 10.0 mi Variable 5.8 mph - N/A   Overcast
9:51 PM 41.0 °F 37.1 °F 28.9 °F 62% 29.97 in 10.0 mi Variable 5.8 mph - N/A   Mostly Cloudy
10:51 PM 39.9 °F 37.8 °F 28.0 °F 63% 29.98 in 10.0 mi Variable 3.5 mph - N/A   Overcast
11:51 PM 37.9 °F 33.5 °F 27.0 °F 65% 29.98 in 10.0 mi WNW 5.8 mph - N/A   Clear